timestamp,surface_pressure_avg,surface_temp_avg,battery_voltage,lat,long
2019-05-26 00:00:00+00:00,227.6946,2.4,13.13,47.84626,-54.09684
2019-05-26 00:10:00+00:00,229.8781,2.5,13.05,47.84626,-54.09684
2019-05-26 00:20:00+00:00,232.8731,2.5,13.05,47.84626,-54.09684
2019-05-26 00:30:00+00:00,233.6048,2.4,13.05,47.84626,-54.09684
2019-05-26 00:40:00+00:00,236.0714,2.3,13.05,47.84626,-54.09684
2019-05-26 00:50:00+00:00,242.2464,2.1,13.05,47.84626,-54.09684
2019-05-26 01:00:00+00:00,244.8698,2.19,12.97,47.84626,-54.09684
2019-05-26 01:10:00+00:00,244.0731,2.29,12.81,47.84626,-54.09684
2019-05-26 01:20:00+00:00,246.3297,2.2,12.97,47.84626,-54.09684
2019-05-26 01:30:00+00:00,254.8497,2.1,12.97,47.84626,-54.09684
2019-05-26 01:40:00+00:00,257.8682,2.23,12.97,47.84626,-54.09684
2019-05-26 01:50:00+00:00,258.0015,2.2,12.97,47.84626,-54.09684
2019-05-26 02:00:00+00:00,263.7664,2.1,12.89,47.84626,-54.09684
2019-05-26 02:10:00+00:00,274.1614,2.0,12.81,47.84626,-54.09684
2019-05-26 02:20:00+00:00,278.8381,2.1,12.89,47.84626,-54.09684
2019-05-26 02:30:00+00:00,281.4364,1.84,12.89,47.84626,-54.09684
2019-05-26 02:40:00+00:00,288.0797,1.4,12.97,47.84626,-54.09684
2019-05-26 02:50:00+00:00,297.0847,1.3,12.97,47.84626,-54.09684
2019-05-26 03:00:00+00:00,299.5579,1.2,12.89,47.84626,-54.09684
2019-05-26 03:10:00+00:00,300.7864,1.1,12.81,47.84626,-54.09684
2019-05-26 03:20:00+00:00,306.2597,1.11,12.89,47.84626,-54.09684
2019-05-26 03:30:00+00:00,311.9813,1.2,12.89,47.84626,-54.09684
2019-05-26 03:40:00+00:00,311.368,1.19,12.89,47.84626,-54.09684
2019-05-26 03:50:00+00:00,310.073,1.3,12.89,47.84626,-54.09684
2019-05-26 04:00:00+00:00,314.7847,1.4,12.81,47.84626,-54.09684
2019-05-26 04:10:00+00:00,320.8413,1.4,12.73,47.84626,-54.09684
2019-05-26 04:20:00+00:00,322.5099,1.41,12.81,47.84626,-54.09684
2019-05-26 04:30:00+00:00,322.3063,1.4,12.89,47.84626,-54.09684
2019-05-26 04:40:00+00:00,328.3347,1.39,12.89,47.84626,-54.09684
2019-05-26 04:50:00+00:00,329.6813,1.3,12.89,47.84626,-54.09684
2019-05-26 05:00:00+00:00,325.8979,1.3,12.81,47.84626,-54.09684
2019-05-26 05:10:00+00:00,323.6848,1.3,12.73,47.84626,-54.09684
2019-05-26 05:20:00+00:00,325.6912,1.27,12.81,47.84626,-54.09684
2019-05-26 05:30:00+00:00,323.9363,1.2,12.81,47.84626,-54.09684
2019-05-26 05:40:00+00:00,317.3479,1.19,12.81,47.84626,-54.09684
2019-05-26 05:50:00+00:00,316.0847,1.19,12.81,47.84626,-54.09684
2019-05-26 06:00:00+00:00,317.0746,1.17,12.81,47.84626,-54.09684
2019-05-26 06:10:00+00:00,312.0214,1.1,12.73,47.84626,-54.09684
2019-05-26 06:20:00+00:00,307.2513,1.1,12.81,47.84626,-54.09684
2019-05-26 06:30:00+00:00,307.9682,1.1,12.81,47.84626,-54.09684
2019-05-26 06:40:00+00:00,307.6512,1.1,12.81,47.84626,-54.09684
2019-05-26 06:50:00+00:00,302.6713,1.1,12.81,47.84626,-54.09684
2019-05-26 07:00:00+00:00,299.7663,1.1,12.73,47.84626,-54.09684
2019-05-26 07:10:00+00:00,293.5497,1.1,12.65,47.84626,-54.09684
2019-05-26 07:20:00+00:00,283.503,1.29,12.73,47.84626,-54.09684
2019-05-26 07:30:00+00:00,273.798,1.53,12.73,47.84626,-54.09684
2019-05-26 07:40:00+00:00,272.6013,1.82,12.81,47.84626,-54.09684
2019-05-26 07:50:00+00:00,271.4064,2.03,12.81,47.84626,-54.09684
2019-05-26 08:00:00+00:00,263.7214,2.28,12.73,47.84626,-54.09684
2019-05-26 08:10:00+00:00,257.7781,2.4,12.65,47.84626,-54.09684
2019-05-26 08:20:00+00:00,255.5998,2.4,12.73,47.84626,-54.09684
2019-05-26 08:30:00+00:00,252.4248,2.4,12.81,47.84626,-54.09684
2019-05-26 08:40:00+00:00,246.7481,2.5,12.81,47.84626,-54.09684
2019-05-26 08:50:00+00:00,246.4281,2.5,12.89,47.84626,-54.09684
2019-05-26 09:00:00+00:00,244.528,2.4,12.89,47.84626,-54.09684
2019-05-26 09:10:00+00:00,237.5614,2.3,12.89,47.84626,-54.09684
2019-05-26 09:20:00+00:00,231.4398,2.2,13.13,47.84626,-54.09684
2019-05-26 09:30:00+00:00,231.2364,2.1,13.29,47.84626,-54.09684
2019-05-26 09:40:00+00:00,229.4081,2.08,13.53,47.84626,-54.09684
2019-05-26 09:50:00+00:00,221.7597,2.2,13.76,47.84626,-54.09684
2019-05-26 10:00:00+00:00,219.788,2.21,13.84,47.84626,-54.09684
2019-05-26 10:10:00+00:00,221.4498,2.2,13.92,47.84626,-54.09684
2019-05-26 10:20:00+00:00,221.2347,2.29,14.24,47.84626,-54.09684
2019-05-26 10:30:00+00:00,218.9514,2.3,14.48,47.84626,-54.09684
2019-05-26 10:40:00+00:00,218.4365,2.3,14.64,47.84626,-54.09684
2019-05-26 10:50:00+00:00,220.2165,2.35,14.72,47.84626,-54.09684
2019-05-26 11:00:00+00:00,221.248,2.4,14.64,47.84626,-54.09684
2019-05-26 11:10:00+00:00,223.633,2.3,14.64,47.84626,-54.09684
2019-05-26 11:20:00+00:00,224.3664,2.39,14.8,47.84626,-54.09684
2019-05-26 11:30:00+00:00,222.298,2.3,14.8,47.84626,-54.09684
2019-05-26 11:40:00+00:00,221.6797,2.19,14.8,47.84626,-54.09684
2019-05-26 11:50:00+00:00,223.2047,2.2,14.8,47.84626,-54.09684
2019-05-26 12:00:00+00:00,223.2447,2.22,14.72,47.84626,-54.09684
2019-05-26 12:10:00+00:00,224.4098,2.31,14.64,47.84626,-54.09684
2019-05-26 12:20:00+00:00,228.7198,2.3,14.8,47.84626,-54.09684
2019-05-26 12:30:00+00:00,228.0814,2.39,14.8,47.84626,-54.09684
2019-05-26 12:40:00+00:00,228.5714,2.5,14.8,47.84626,-54.09684
2019-05-26 12:50:00+00:00,234.2081,2.5,14.8,47.84626,-54.09684
2019-05-26 13:00:00+00:00,238.5731,2.52,14.64,47.84626,-54.09684
2019-05-26 13:10:00+00:00,236.4464,2.59,14.64,47.84626,-54.09684
2019-05-26 13:20:00+00:00,237.3264,2.5,14.72,47.84626,-54.09684
2019-05-26 13:30:00+00:00,242.2415,2.3,14.72,47.84626,-54.09684
2019-05-26 13:40:00+00:00,244.7114,2.33,14.72,47.84626,-54.09684
2019-05-26 13:50:00+00:00,245.0815,2.31,14.72,47.84626,-54.09684
2019-05-26 14:00:00+00:00,246.2314,2.4,14.64,47.84626,-54.09684
2019-05-26 14:10:00+00:00,248.5681,2.2,14.56,47.84626,-54.09684
2019-05-26 14:20:00+00:00,252.0331,2.2,14.64,47.84626,-54.09684
2019-05-26 14:30:00+00:00,256.3198,2.3,14.64,47.84626,-54.09684
2019-05-26 14:40:00+00:00,262.0247,2.35,14.64,47.84626,-54.09684
2019-05-26 14:50:00+00:00,267.3797,2.39,14.64,47.84626,-54.09684
2019-05-26 15:00:00+00:00,271.1247,2.39,14.56,47.84626,-54.09684
2019-05-26 15:10:00+00:00,275.5714,2.4,14.48,47.84626,-54.09684
2019-05-26 15:20:00+00:00,280.668,2.1,14.56,47.84626,-54.09684
2019-05-26 15:30:00+00:00,284.963,2.14,14.56,47.84626,-54.09684
2019-05-26 15:40:00+00:00,286.6996,2.3,14.56,47.84626,-54.09684
2019-05-26 15:50:00+00:00,288.9415,2.39,14.56,47.84626,-54.09684
2019-05-26 16:00:00+00:00,290.228,2.5,14.48,47.84626,-54.09684
2019-05-26 16:10:00+00:00,291.2297,2.6,14.4,47.84626,-54.09684
2019-05-26 16:20:00+00:00,293.5897,2.7,14.48,47.84626,-54.09684
2019-05-26 16:30:00+00:00,298.6848,2.78,14.48,47.84626,-54.09684
2019-05-26 16:40:00+00:00,301.4847,2.8,14.48,47.84626,-54.09684
2019-05-26 16:50:00+00:00,300.8381,2.8,14.4,47.84626,-54.09684
2019-05-26 17:00:00+00:00,302.3914,2.86,14.32,47.84626,-54.09684
2019-05-26 17:10:00+00:00,305.0563,2.88,14.24,47.84626,-54.09684
2019-05-26 17:20:00+00:00,302.468,2.9,14.32,47.84626,-54.09684
2019-05-26 17:30:00+00:00,299.1213,2.9,14.32,47.84626,-54.09684
2019-05-26 17:40:00+00:00,299.1147,2.96,14.24,47.84626,-54.09684
2019-05-26 17:50:00+00:00,301.738,3.0,14.24,47.84626,-54.09684
2019-05-26 18:00:00+00:00,299.3447,3.0,14.16,47.84626,-54.09684
2019-05-26 18:10:00+00:00,296.5463,3.08,14.0,47.84626,-54.09684
2019-05-26 18:20:00+00:00,297.6047,3.1,14.08,47.84626,-54.09684
2019-05-26 18:30:00+00:00,297.768,3.1,14.08,47.84626,-54.09684
2019-05-26 18:40:00+00:00,295.8997,3.1,14.08,47.84626,-54.09684
2019-05-26 18:50:00+00:00,293.2195,3.1,14.08,47.84626,-54.09684
2019-05-26 19:00:00+00:00,292.1481,3.1,14.0,47.84626,-54.09684
2019-05-26 19:10:00+00:00,289.988,3.08,13.92,47.84626,-54.09684
2019-05-26 19:20:00+00:00,287.3397,3.0,14.0,47.84626,-54.09684
2019-05-26 19:30:00+00:00,281.3281,3.0,14.0,47.84626,-54.09684
2019-05-26 19:40:00+00:00,277.0514,3.0,14.0,47.84626,-54.09684
2019-05-26 19:50:00+00:00,273.5947,3.0,14.0,47.84626,-54.09684
2019-05-26 20:00:00+00:00,269.5014,3.0,14.0,47.84626,-54.09684
2019-05-26 20:10:00+00:00,265.688,3.0,13.84,47.84626,-54.09684
2019-05-26 20:20:00+00:00,263.4314,2.95,13.92,47.84626,-54.09684
2019-05-26 20:30:00+00:00,257.5681,2.9,13.92,47.84626,-54.09684
2019-05-26 20:40:00+00:00,252.5547,2.9,14.0,47.84626,-54.09684
2019-05-26 20:50:00+00:00,247.5881,2.93,14.0,47.84626,-54.09684
2019-05-26 21:00:00+00:00,244.3881,3.22,13.92,47.84626,-54.09684
2019-05-26 21:10:00+00:00,240.1264,3.3,13.84,47.84626,-54.09684
2019-05-26 21:20:00+00:00,237.1013,3.39,13.84,47.84626,-54.09684
2019-05-26 21:30:00+00:00,235.7348,3.4,13.84,47.84626,-54.09684
2019-05-26 21:40:00+00:00,231.5298,3.4,13.84,47.84626,-54.09684
2019-05-26 21:50:00+00:00,229.4715,3.4,13.84,47.84626,-54.09684
2019-05-26 22:00:00+00:00,228.3514,3.4,13.76,47.84626,-54.09684
2019-05-26 22:10:00+00:00,226.3098,3.42,13.68,47.84626,-54.09684
2019-05-26 22:20:00+00:00,222.0764,4.24,13.68,47.84626,-54.09684
2019-05-26 22:30:00+00:00,220.598,4.1,13.68,47.84626,-54.09684
2019-05-26 22:40:00+00:00,223.6031,3.9,13.6,47.84626,-54.09684
2019-05-26 22:50:00+00:00,224.0231,4.53,13.6,47.84626,-54.09684
2019-05-26 23:00:00+00:00,222.4299,4.35,13.44,47.84626,-54.09684
2019-05-26 23:10:00+00:00,222.7198,3.31,13.29,47.84626,-54.09684
2019-05-26 23:20:00+00:00,224.8481,3.29,13.29,47.84626,-54.09684
2019-05-26 23:30:00+00:00,223.8998,3.37,13.29,47.84626,-54.09684
2019-05-26 23:40:00+00:00,224.4731,3.5,13.29,47.84626,-54.09684
2019-05-26 23:50:00+00:00,227.3865,2.95,13.21,47.84626,-54.09684
